Big Bear Station Historical Data
Daily Summary for December 8, 2017 Units:  English    Metric   Both
Next Day »
Daily Weekly Monthly Yearly Custom
  High: Low: Average:
Temperature: 50.5 °F 29.5 °F 38 °F
Dew Point: 14.3 °F 3.6 °F 9.9 °F
Humidity: 52% 22% 32%
Wind Speed: 4.7mph 0.0mph 1.3mph
Wind Gust: -999.0mph - -
Wind- - SSW
Pressure: 30.45 in 30.38 in -
Precipitation: 0.00 in    
Historical Graphs
 
 
Tabular Data for December 8, 2017
Time Temperature Dew Point Pressure Wind Wind Speed Wind Gust Humidity Rainfall Rate (Hourly)
00:01 35.4 °F 8.4 °F 30.44 in Calm   -999.0 mph 32% 0 in
00:31 34.3 °F 8.8 °F 30.44 in Calm   -999.0 mph 34% 0 in
00:47 34.0 °F 9.2 °F 30.44 in Calm   -999.0 mph 35% 0 in
01:02 34.5 °F 9.6 °F 30.44 in Calm   -999.0 mph 35% 0 in
01:17 34.2 °F 9.4 °F 30.44 in South 3.2 mph -999.0 mph 35% 0 in
01:32 33.8 °F 9.0 °F 30.44 in Calm   -999.0 mph 35% 0 in
01:48 33.4 °F 8.7 °F 30.44 in South 1.7 mph -999.0 mph 35% 0 in
02:03 33.3 °F 8.6 °F 30.44 in SE 1.7 mph -999.0 mph 35% 0 in
02:18 33.1 °F 8.4 °F 30.44 in Calm   -999.0 mph 35% 0 in
02:33 32.2 °F 7.6 °F 30.44 in Calm   -999.0 mph 35% 0 in
02:49 31.8 °F 7.9 °F 30.44 in Calm   -999.0 mph 36% 0 in
03:04 31.3 °F 8.0 °F 30.44 in Calm   -999.0 mph 37% 0 in
03:19 32.2 °F 8.2 °F 30.43 in Calm   -999.0 mph 36% 0 in
03:34 32.0 °F 8.0 °F 30.44 in South 2.7 mph -999.0 mph 36% 0 in
03:50 32.5 °F 8.5 °F 30.43 in ESE 2.2 mph -999.0 mph 36% 0 in
04:05 32.9 °F 8.8 °F 30.43 in SW 2.2 mph -999.0 mph 36% 0 in
04:20 32.9 °F 8.8 °F 30.43 in South 2.2 mph -999.0 mph 36% 0 in
04:35 32.7 °F 8.7 °F 30.43 in Calm   -999.0 mph 36% 0 in
05:06 32.7 °F 9.3 °F 30.43 in Calm   -999.0 mph 37% 0 in
05:36 32.4 °F 9.6 °F 30.43 in Calm   -999.0 mph 38% 0 in
05:51 32.4 °F 9.6 °F 30.43 in Calm   -999.0 mph 38% 0 in
06:07 31.5 °F 9.4 °F 30.44 in Calm   -999.0 mph 39% 0 in
06:22 31.1 °F 12.2 °F 30.44 in Calm   -999.0 mph 45% 0 in
06:37 30.6 °F 13.2 °F 30.44 in Calm   -999.0 mph 48% 0 in
07:08 29.8 °F 14.3 °F 30.45 in Calm   -999.0 mph 52% 0 in
07:24 29.5 °F 14.0 °F 30.45 in Calm   -999.0 mph 52% 0 in
07:39 29.7 °F 13.8 °F 30.45 in Calm   -999.0 mph 51% 0 in
07:54 30.7 °F 12.8 °F 30.45 in Calm   -999.0 mph 47% 0 in
08:09 32.9 °F 13.4 °F 30.45 in NNW 1.1 mph -999.0 mph 44% 0 in
08:25 35.6 °F 13.1 °F 30.45 in NE 2.2 mph -999.0 mph 39% 0 in
08:40 37.4 °F 13.5 °F 30.45 in Calm   -999.0 mph 37% 0 in
08:55 39.2 °F 13.2 °F 30.45 in West 2.2 mph -999.0 mph 34% 0 in
09:10 41.2 °F 13.5 °F 30.45 in NE 2.7 mph -999.0 mph 32% 0 in
09:25 42.3 °F 13.8 °F 30.45 in East 1.7 mph -999.0 mph 31% 0 in
09:41 43.3 °F 13.9 °F 30.45 in NNW 2.7 mph -999.0 mph 30% 0 in
10:11 45.0 °F 13.8 °F 30.44 in NW 3.7 mph -999.0 mph 28% 0 in
10:42 46.8 °F 13.7 °F 30.44 in WNW 3.2 mph -999.0 mph 26% 0 in
11:13 48.6 °F 13.4 °F 30.43 in North 1.7 mph -999.0 mph 24% 0 in
11:28 48.6 °F 13.4 °F 30.42 in NNW 4.7 mph -999.0 mph 24% 0 in
11:43 49.3 °F 13.0 °F 30.42 in NW 4.7 mph -999.0 mph 23% 0 in
11:58 50.5 °F 13.0 °F 30.42 in Calm   -999.0 mph 22% 0 in
12:13 49.5 °F 12.2 °F 30.42 in NW 4.7 mph -999.0 mph 22% 0 in
12:29 50.0 °F 12.6 °F 30.41 in NW 3.7 mph -999.0 mph 22% 0 in
12:44 50.4 °F 12.9 °F 30.41 in ENE 2.2 mph -999.0 mph 22% 0 in
12:59 49.6 °F 12.3 °F 30.41 in Calm   -999.0 mph 22% 0 in
13:15 48.9 °F 12.7 °F 30.40 in ENE 1.7 mph -999.0 mph 23% 0 in
13:30 48.7 °F 12.5 °F 30.40 in ESE 1.7 mph -999.0 mph 23% 0 in
13:45 48.7 °F 12.5 °F 30.39 in WNW 1.7 mph -999.0 mph 23% 0 in
14:00 48.2 °F 12.1 °F 30.39 in NW 2.7 mph -999.0 mph 23% 0 in
14:15 47.7 °F 12.6 °F 30.39 in ESE 2.2 mph -999.0 mph 24% 0 in
14:31 47.3 °F 13.2 °F 30.39 in NW 4.2 mph -999.0 mph 25% 0 in
14:46 46.9 °F 11.9 °F 30.39 in SSE 1.7 mph -999.0 mph 24% 0 in
15:01 46.6 °F 12.6 °F 30.39 in North 1.7 mph -999.0 mph 25% 0 in
15:17 45.7 °F 11.8 °F 30.39 in Calm   -999.0 mph 25% 0 in
15:32 45.3 °F 12.4 °F 30.39 in North 1.7 mph -999.0 mph 26% 0 in
15:47 44.4 °F 11.6 °F 30.39 in Calm   -999.0 mph 26% 0 in
16:02 43.5 °F 11.7 °F 30.39 in Calm   -999.0 mph 27% 0 in
16:18 42.3 °F 10.7 °F 30.39 in Calm   -999.0 mph 27% 0 in
16:33 41.0 °F 9.5 °F 30.39 in Calm   -999.0 mph 27% 0 in
16:48 39.7 °F 10.0 °F 30.39 in Calm   -999.0 mph 29% 0 in
17:03 38.7 °F 10.6 °F 30.39 in South 2.2 mph -999.0 mph 31% 0 in
17:18 38.3 °F 10.3 °F 30.39 in Calm   -999.0 mph 31% 0 in
17:34 37.2 °F 9.3 °F 30.38 in SSE 2.2 mph -999.0 mph 31% 0 in
17:49 37.0 °F 8.4 °F 30.39 in SSE 2.2 mph -999.0 mph 30% 0 in
18:04 37.8 °F 7.6 °F 30.39 in SSE 2.2 mph -999.0 mph 28% 0 in
18:20 37.4 °F 6.4 °F 30.39 in SSE 1.7 mph -999.0 mph 27% 0 in
18:35 36.5 °F 5.6 °F 30.40 in Calm   -999.0 mph 27% 0 in
18:50 36.0 °F 5.2 °F 30.40 in South 1.1 mph -999.0 mph 27% 0 in
19:05 36.0 °F 5.2 °F 30.40 in SSE 1.7 mph -999.0 mph 27% 0 in
19:20 35.2 °F 5.3 °F 30.41 in South 2.2 mph -999.0 mph 28% 0 in
19:36 35.1 °F 3.6 °F 30.40 in South 2.2 mph -999.0 mph 26% 0 in
20:06 34.2 °F 6.0 °F 30.40 in Calm   -999.0 mph 30% 0 in
20:52 33.4 °F 4.5 °F 30.40 in Calm   -999.0 mph 29% 0 in
21:07 33.1 °F 6.4 °F 30.41 in Calm   -999.0 mph 32% 0 in
21:22 32.4 °F 6.5 °F 30.41 in Calm   -999.0 mph 33% 0 in
21:53 33.6 °F 7.5 °F 30.40 in South 2.2 mph -999.0 mph 33% 0 in
22:08 34.2 °F 6.7 °F 30.40 in South 1.7 mph -999.0 mph 31% 0 in
22:23 34.5 °F 6.2 °F 30.41 in South 2.2 mph -999.0 mph 30% 0 in
22:38 34.7 °F 5.6 °F 30.41 in SSW 2.2 mph -999.0 mph 29% 0 in
22:53 34.2 °F 5.2 °F 30.41 in SSE 1.7 mph -999.0 mph 29% 0 in
23:09 33.4 °F 6.0 °F 30.41 in Calm   -999.0 mph 31% 0 in
23:24 33.3 °F 6.6 °F 30.41 in South 1.7 mph -999.0 mph 32% 0 in
23:39 32.9 °F 5.5 °F 30.41 in SSE 1.7 mph -999.0 mph 31% 0 in
23:54 32.5 °F 5.2 °F 30.41 in Calm   -999.0 mph 31% 0 in
Big Bear CA Weather